Weather History for Ciudad Obregon, Mexico

Change the Weather History Date:

Monday, March 4, 2013

  Actual Average Record
Temperature  
Mean Temperature 64 °F -  
Max Temperature 85 °F 77 °F 91 °F (2009)
Min Temperature 43 °F 52 °F 43 °F (2013)
Degree Days  
Heating Degree Days 1    
Growing Degree Days 14 (Base 50)    
Moisture  
Dew Point 40 °F    
Average Humidity 30    
Maximum Humidity 47    
Minimum Humidity 15    
Precipitation  
Precipitation 0.00 in - - ()
Sea Level Pressure  
Sea Level Pressure 29.94 in    
Wind  
Wind Speed 5 mph ()    
Max Wind Speed 11 mph    
Max Gust Speed -    
Visibility 10.3 miles    
Events      
Averages and records for this station are not official NWS values.
T = Trace of Precipitation, MM = Missing Value Source: Averaged Metar Reports

Daily Weather History Graph

Daily Weather History Graph

Search for Another Location

Airport:

Trip Planner

Search our weather history database for the weather conditions in past years. The results will help you decide how hot, cold, wet, or windy it might be!

Date:

Astronomy

Mar. 04, 2013 Rise Set
Actual Time 6:40 AM MST 6:22 PM MST
Civil Twilight 6:16 AM MST 6:45 PM MST
Nautical Twilight 5:49 AM MST 7:12 PM MST
Astronomical Twilight 5:22 AM MST 7:39 PM MST
Moon 12:32 AM MST (3/4) 11:28 AM MST (3/4)
Length of Visible Light 12h 28m
Length of Day
11h 41m
Waning Gibbous, 51% of the Moon is Illuminated
Mar 4
Waning Gibbous
Mar 4
Last Quarter
Mar 11
New
Mar 19
First Quarter
Mar 27
Full

Hourly Weather History & Observations

Time (MST) Temp. Dew Point Humidity Pressure Visibility Wind Dir Wind Speed Gust Speed Precip Events Conditions
4:40 AM 55.4 °F 30.2 °F 38% 29.90 in 10.0 mi East 5.8 mph - N/A   Clear
5:42 AM 51.8 °F 30.2 °F 44% 29.92 in 10.0 mi East 8.1 mph - N/A   Partly Cloudy
6:42 AM 50.0 °F 30.2 °F 47% 29.94 in 10.0 mi ESE 5.8 mph - N/A   Scattered Clouds
7:40 AM 55.4 °F 28.4 °F 36% 29.95 in 10.0 mi ESE 3.5 mph - N/A   Scattered Clouds
8:40 AM 71.6 °F 30.2 °F 22% 29.97 in 10.0 mi Calm Calm - N/A   Scattered Clouds
9:40 AM 75.2 °F 39.2 °F 27% 29.98 in 10.0 mi Calm Calm - N/A   Scattered Clouds
10:40 AM 82.4 °F 30.2 °F 15% 29.98 in 10.0 mi SW 4.6 mph - N/A   Scattered Clouds
10:50 AM 81 °F 47 °F 20% 30.01 in 12 mi SE 11.2 mph - -   Scattered Clouds
11:41 AM 82.4 °F 35.6 °F 19% 29.97 in 10.0 mi South 4.6 mph - N/A   Partly Cloudy
12:40 PM 84.2 °F 37.4 °F 19% 29.94 in 10.0 mi SSW 10.4 mph - N/A   Partly Cloudy
1:42 PM 82.4 °F 50.0 °F 32% 29.92 in 10.0 mi West 8.1 mph - N/A   Scattered Clouds
1:50 PM 82 °F 51 °F 24% 29.95 in 12 mi SSW 8.9 mph - -   Partly Cloudy
2:41 PM 84.2 °F 37.4 °F 19% 29.91 in 10.0 mi SSW 9.2 mph - N/A   Mostly Cloudy
3:41 PM 80.6 °F 46.4 °F 30% 29.90 in 10.0 mi WSW 5.8 mph - N/A   Mostly Cloudy
4:43 PM 80.6 °F 39.2 °F 23% 29.90 in 10.0 mi SW 6.9 mph - N/A   Mostly Cloudy
4:50 PM 82 °F 57 °F 32% 29.92 in 12 mi SW 6.7 mph - -   Partly Cloudy
5:44 PM 75.2 °F 46.4 °F 36% 29.90 in 10.0 mi Calm Calm - N/A   Mostly Cloudy
6:42 PM 71.6 °F 46.4 °F 41% 29.91 in 10.0 mi WNW 3.5 mph - N/A   Overcast
7:42 PM 69.8 °F 44.6 °F 40% 29.92 in 10.0 mi WNW 3.5 mph - N/A   Scattered Clouds